Location: ?????????
(55.6553°N, 38.9075°E)
Time: 11:51:43
(UTC+00:00)

USA 229 DEB - Pass Details

Date: 18 October 2019
Orbit: 997 x 1216 km, 63.4° (Epoch: 31 October)

Event Time Altitude Azimuth Distance (km) Brightness Sun altitude
Exits shadow 01:06:54 36° 300° (WNW) 1,651 4.3 -24.8°
Maximum altitude 01:09:15 48° 348° (NNW) 1,396 4.3 -24.5°
Drops below altitude 10° 01:16:12 10° 62° (ENE) 3,030 7.1 -23.6°
Sets 01:19:06 0° 68° (ENE) 4,023 8.2 -23.2°
